Погода в Угличах

Россия / Калужская область     54°49′03″N   37°09′16″E
темп.,
°C
ветер,
м/с
пор.,
м/с
влажн.,
%
обл.,
%
осадки,
мм/ч
давл.,
гПа
погр.,
м
27 ноября, сб
сб2700:00+2ююз61395100 0.0 1011547
03:00+1ю51191100 0.1 1010423
06:000ю51392100 0.0 1010400
09:00−1ююв61487100 0.0 1009425
12:00+2ююв71787100 0.0 1006669
15:00+3ююв81686100 0.0 1003823
18:00+2ююв81797100 0.4 1000779
21:00+3ю81795100 1.6 999701
28 ноября, вс
вс2800:00+4ююз71596100 0.2 999604
03:00+5ююз7149198 0.3 1000695
06:00+4юз6138694 0.1 1001556
09:00+3ююз5118232 0.1 1003483
12:00+3зюз6118191 0.0 1005809
15:00+2юз498078 0.0 1007499
18:00+1ююз3990100 0.0 1008234
21:00+1ююз3790100 0.0 1009149
29 ноября, пн
пн2900:00+1ю2387100 0.0 101062
03:00+1юв3787100 0.0 1009143
06:00+3вюв41197100 0.0 1007278
09:00+3юв51295100 0.0 1005340
12:00+4юв41097100 0.2 1002277
15:00+4вюв51298100 0.6 998413
18:00+5юв51298100 2.9 993415
21:00+6юв61497100 5.8 988499
30 ноября, вт
вт3000:00+6вюв4998100 2.1 983369
03:00+7ю3898100 2.1 979266
06:00+7юз41098100 0.0 976412
09:00+2юз101896100 4.1 980883
12:00+1юз101896100 2.4 9821036
15:00+2юз101782100 3.1 9831212
18:00+1юз91683100 0.0 9841137
21:000юз81496100 0.3 983958
1 декабря, ср
ср100:00−1з61193100 0.6 985839
03:00−2з61192100 1.1 988817
06:00−3з61084100 0.2 991830
09:00−4з61084100 0.3 994781
12:00−3з697594 0.0 995874
15:00−3з5876100 0.1 9961033
18:00−3зюз3886100 0.0 996658
21:00−3зюз5109090 0.1 997615